Regional Weather Roundup
Issued by NWS Mobile, AL

Home | Current Version | Previous Version | Text Only | Print | Product List | Glossary On
Versions: 1 2 3 4 5 6 7 8 9 10 11 12 13 14 15 16 17 18 19 20 21 22 23 24 25 26 27 28 29 30 31 32 33 34 35 36 37 38 39 40 41 42 43 44 45 46 47 48 49 50
000
ASUS44 KMOB 281812
RWRMOB
REGIONAL WEATHER ROUNDUP
NATIONAL WEATHER SERVICE MOBILE AL
100 PM CDT SAT MAY 28 2016

NOTE: "FAIR" INDICATES FEW OR NO CLOUDS BELOW 12,000 FEET WITH NO
      SIGNIFICANT WEATHER AND/OR OBSTRUCTIONS TO VISIBILITY.

  * THESE STATIONS ARE PART OF THE UNIVERSITY OF SOUTH ALABAMA
    MESONET AND ARE NOT UNDER NWS OR FAA QUALITY CONTROL.

ALZ061>064-281900-
COASTAL ALABAMA

CITY           SKY/WX    TMP DP  RH WIND       PRES   REMARKS
MOBILE REG APT CLOUDY    81  64  56 SE7       30.06S
6HR MIN TEMP:  71; 6HR MAX TEMP:  83;

BROOKLEY FIELD CLOUDY    81  67  62 S7        30.07R
6HR MIN TEMP:  75; 6HR MAX TEMP:  85;

USA CAMPUS*    NOT AVBL
DOG RIVER*     NOT AVBL


CITY           SKY/WX    TMP DP  RH WIND       PRES   REMARKS
MOUNT VERNON*  NOT AVBL
SARALAND*      NOT AVBL
BAY MINETTE*   NOT AVBL
LOXLEY*        NOT AVBL
ROBERTSDALE*   NOT AVBL
FAIRHOPE*      NOT AVBL
ELBERTA*       NOT AVBL
FOLEY*         NOT AVBL
GRAND BAY*     NOT AVBL
DAUPHIN ISLND* NOT AVBL
BON SCOUR NWR* NOT AVBL
GULF SHORES    PTSUNNY   82  69  63 SE15G26   30.06R

$$

ALZ051>060-281900-
INTERIOR SOUTHWEST AND SOUTH CENTRAL ALABAMA

CITY           SKY/WX    TMP DP  RH WIND       PRES   REMARKS
GREENVILLE     MOSUNNY   84  68  58 VRB5      30.07S
6HR MIN TEMP:  70; 6HR MAX TEMP:  85; 6HR PCP: TRACE;

EVERGREEN      MOSUNNY   84  67  56 SE10      30.08R
6HR MIN TEMP:  69; 6HR MAX TEMP:  85; 6HR PCP: TRACE;

CASTLEBERRY*   NOT AVBL
ATMORE*        NOT AVBL
DIXIE*         NOT AVBL
ANDALUSIA/OPP  CLOUDY    84  70  62 CALM      30.06F
6HR MIN TEMP:  73; 6HR MAX TEMP:  84; 6HR PCP:  0.01;

ANDALUSIA*     NOT AVBL
FLORALA APT    CLOUDY    82  68  62 CALM      30.07F
6HR MIN TEMP:  69; 6HR MAX TEMP:  82;

FLORALA*       NOT AVBL

$$

FLZ001>006-281900-
WESTERN FLORIDA PANHANDLE

CITY           SKY/WX    TMP DP  RH WIND       PRES   REMARKS
PENSACOLA      MOSUNNY   83  68  60 SE13      30.05S
6HR MIN TEMP:  75; 6HR MAX TEMP:  85;

NAS PENSACOLA  PTSUNNY   82  68  62 SE9       30.05S
6HR MIN TEMP:  77; 6HR MAX TEMP:  84; 6HR PCP: TRACE;

MILTON         NOT AVBL
WHTNG S FIELD  NOT AVBL


CITY           SKY/WX    TMP DP  RH WIND       PRES   REMARKS
WALNUT HILL*   NOT AVBL
JAY*           NOT AVBL
DUKE FIELD     MOSUNNY   85  68  57 S15       30.04F
CRESTVIEW      PTSUNNY   84  69  60 VRB7      30.06F
6HR MIN TEMP:  69; 6HR MAX TEMP:  87;

VALPARAISO     PTSUNNY   85  72  66 SE13      30.05F
6HR MIN TEMP:  73; 6HR MAX TEMP:  85;

DESTIN         MOSUNNY   85  76  74 SE14      30.05S
6HR MIN TEMP:  76; 6HR MAX TEMP:  85;


$$

MSZ076-079-281900-
INTERIOR SOUTHEAST MISSISSIPPI

CITY           SKY/WX    TMP DP  RH WIND       PRES   REMARKS
LEAKESVILLE*   NOT AVBL
AGRICOLA*      NOT AVBL

$$

MARINE OBSERVATIONS

STATION/POSITION TIME  TEMP    WIND        PRES    WAVE
                       AIR SEA DIR/SP/G            HT/PER
                 (UTC) (F)     (DEG/KT/KT) (MB)    (FT/S)
PASCAGOULA       1700   79     130/  8/ 11 1017.3R
PETIT BOIS ISLND 1700   78     110/ 11/ 14 1017.6R
KATRINA CUT      1700   79     150/ 11     1018.3R
CEDAR POINT      1700   79     140/ 10     1017.6R
E DAUPHIN ISLAND 1700   79     120/ 11/ 12 1017.3R
MIDDLE BAY LIGHT 1700   80     150/ 12     1018.0R
USCG MOBILE BAY  1700   80 80  170/  5/ 11 1018.1R
STATE DOCKS      1700   82 80              1017.4R
MEAHER PARK      1700   79     220/ 10     1016.3R
WEEKS BAY        1600   84                   N/A
FORT MORGAN      1700   80     160/ 12/ 15 1017.1R
12 S ORANGE BCH  1750   78 80  110/ 10/ 12 1016.9R   2/ 6
PENSACOLA BAY    1700      81  150/  5/ 10 1018.0R
64 S DAUPHIN ISL 1700   78 78  130/ 12/ 14 1016.6R

$$

SELECTED LOCATIONS ACROSS THE REGION

CITY           SKY/WX    TMP DP  RH WIND       PRES   REMARKS
NEW ORLEANS    CLOUDY    87  71  58 S8        30.02F
GULFPORT       CLOUDY    83  66  56 E9        30.05R
PASCAGOULA AP  CLOUDY    82  66  58 SE9       30.06R
PASCAGOULA*    NOT AVBL
HATTIESBURG    CLOUDY    81  66  60 SW6       30.07S
LAUREL         CLOUDY    79  64  61 S9        30.08S
MERIDIAN       CLOUDY    88  63  43 S14       30.05F
JACKSON        CLOUDY    83  66  56 S15       30.04S
MONTGOMERY     CLOUDY    79  69  71 W6        30.08S
TROY           MOSUNNY   88  63  43 SE6       30.06F
KINSTON*       NOT AVBL
GENEVA*        NOT AVBL
ASHFORD*       NOT AVBL
DOTHAN         MOSUNNY   88  58  36 VRB5      30.08F
PANAMA CITY    CLOUDY    82  72  71 S15       30.03F

$$




USA.gov is the U.S. government's official web portal to all federal, state and local government web resources and services.